#datetime,building,power
2022-07-26T00:00:00,sdl,7.74
2022-07-26T00:01:00,sdl,7.64
2022-07-26T00:02:00,sdl,6.42
2022-07-26T00:03:00,sdl,6.55
2022-07-26T00:04:00,sdl,6.90
2022-07-26T00:05:00,sdl,6.52
2022-07-26T00:06:00,sdl,6.69
2022-07-26T00:07:00,sdl,6.73
2022-07-26T00:08:00,sdl,6.97
2022-07-26T00:09:00,sdl,4.39
2022-07-26T00:10:00,sdl,3.41
2022-07-26T00:11:00,sdl,3.52
2022-07-26T00:12:00,sdl,3.50
2022-07-26T00:13:00,sdl,3.49
2022-07-26T00:14:00,sdl,3.31
2022-07-26T00:15:00,sdl,3.23
2022-07-26T00:16:00,sdl,3.27
2022-07-26T00:17:00,sdl,3.22
2022-07-26T00:18:00,sdl,3.49
2022-07-26T00:19:00,sdl,3.34
2022-07-26T00:20:00,sdl,5.02
2022-07-26T00:21:00,sdl,4.64
2022-07-26T00:22:00,sdl,4.68
2022-07-26T00:23:00,sdl,4.79
2022-07-26T00:24:00,sdl,4.73
2022-07-26T00:25:00,sdl,3.28
2022-07-26T00:26:00,sdl,5.98
2022-07-26T00:27:00,sdl,6.70
2022-07-26T00:28:00,sdl,5.96
2022-07-26T00:29:00,sdl,6.00
2022-07-26T00:30:00,sdl,6.01
2022-07-26T00:31:00,sdl,5.91
2022-07-26T00:32:00,sdl,6.24
2022-07-26T00:33:00,sdl,5.93
2022-07-26T00:34:00,sdl,5.73
2022-07-26T00:35:00,sdl,5.78
2022-07-26T00:36:00,sdl,5.73
2022-07-26T00:37:00,sdl,4.79
2022-07-26T00:38:00,sdl,2.96
2022-07-26T00:39:00,sdl,2.92
2022-07-26T00:40:00,sdl,3.02
2022-07-26T00:41:00,sdl,3.01
2022-07-26T00:42:00,sdl,0.76
2022-07-26T00:43:00,sdl,1.95
2022-07-26T00:44:00,sdl,1.97
2022-07-26T00:45:00,sdl,2.09
2022-07-26T00:46:00,sdl,2.16
2022-07-26T00:47:00,sdl,2.37
2022-07-26T00:48:00,sdl,1.37
2022-07-26T00:49:00,sdl,1.11
2022-07-26T00:50:00,sdl,1.02
2022-07-26T00:51:00,sdl,1.04
2022-07-26T00:52:00,sdl,1.05
2022-07-26T00:53:00,sdl,1.34
2022-07-26T00:54:00,sdl,1.39
2022-07-26T00:55:00,sdl,1.35
2022-07-26T00:56:00,sdl,1.35
2022-07-26T00:57:00,sdl,1.37
2022-07-26T00:58:00,sdl,3.66
2022-07-26T00:59:00,sdl,3.76
2022-07-26T01:00:00,sdl,3.76
2022-07-26T01:01:00,sdl,3.75
2022-07-26T01:02:00,sdl,3.71
2022-07-26T01:03:00,sdl,3.67
2022-07-26T01:04:00,sdl,3.70
2022-07-26T01:05:00,sdl,3.78
2022-07-26T01:06:00,sdl,4.83
2022-07-26T01:07:00,sdl,4.82
2022-07-26T01:08:00,sdl,4.76
2022-07-26T01:09:00,sdl,4.67
2022-07-26T01:10:00,sdl,4.71
2022-07-26T01:11:00,sdl,1.25
2022-07-26T01:12:00,sdl,1.27
2022-07-26T01:13:00,sdl,1.33
2022-07-26T01:14:00,sdl,1.38
2022-07-26T01:15:00,sdl,1.39
2022-07-26T01:16:00,sdl,1.48
2022-07-26T01:17:00,sdl,1.48
2022-07-26T01:18:00,sdl,1.18
2022-07-26T01:19:00,sdl,1.14
2022-07-26T01:20:00,sdl,1.99
2022-07-26T01:21:00,sdl,1.21
2022-07-26T01:22:00,sdl,1.20
2022-07-26T01:23:00,sdl,1.13
2022-07-26T01:24:00,sdl,1.14
2022-07-26T01:25:00,sdl,1.10
2022-07-26T01:26:00,sdl,1.03
2022-07-26T01:27:00,sdl,1.33
2022-07-26T01:28:00,sdl,1.00
2022-07-26T01:29:00,sdl,1.04
2022-07-26T01:30:00,sdl,1.07
2022-07-26T01:31:00,sdl,2.17
2022-07-26T01:32:00,sdl,2.16
2022-07-26T01:33:00,sdl,2.47
2022-07-26T01:34:00,sdl,2.43
2022-07-26T01:35:00,sdl,1.28
2022-07-26T01:36:00,sdl,1.27
2022-07-26T01:37:00,sdl,1.25
2022-07-26T01:38:00,sdl,1.22
2022-07-26T01:39:00,sdl,1.24
2022-07-26T01:40:00,sdl,1.13
2022-07-26T01:41:00,sdl,1.14
2022-07-26T01:42:00,sdl,1.11
2022-07-26T01:43:00,sdl,0.98
2022-07-26T01:44:00,sdl,1.03
2022-07-26T01:45:00,sdl,1.26
2022-07-26T01:46:00,sdl,1.31
2022-07-26T01:47:00,sdl,0.92
2022-07-26T01:48:00,sdl,0.94
2022-07-26T01:49:00,sdl,1.00
2022-07-26T01:50:00,sdl,1.08
2022-07-26T01:51:00,sdl,1.50
2022-07-26T01:52:00,sdl,1.49
2022-07-26T01:53:00,sdl,1.39
2022-07-26T01:54:00,sdl,1.28
2022-07-26T01:55:00,sdl,5.22
2022-07-26T01:56:00,sdl,4.36
2022-07-26T01:57:00,sdl,4.42
2022-07-26T01:58:00,sdl,4.28
2022-07-26T01:59:00,sdl,4.38
2022-07-26T02:00:00,sdl,3.17
2022-07-26T02:01:00,sdl,4.51
2022-07-26T02:02:00,sdl,4.73
2022-07-26T02:03:00,sdl,4.57
2022-07-26T02:04:00,sdl,4.64
2022-07-26T02:05:00,sdl,4.74
2022-07-26T02:06:00,sdl,9.60
2022-07-26T02:07:00,sdl,9.22
2022-07-26T02:08:00,sdl,9.59
2022-07-26T02:09:00,sdl,9.18
2022-07-26T02:10:00,sdl,7.03
2022-07-26T02:11:00,sdl,9.26
2022-07-26T02:12:00,sdl,9.46
2022-07-26T02:13:00,sdl,10.01
2022-07-26T02:14:00,sdl,9.68
2022-07-26T02:15:00,sdl,9.82
2022-07-26T02:16:00,sdl,9.86
2022-07-26T02:17:00,sdl,9.83
2022-07-26T02:18:00,sdl,9.74
2022-07-26T02:19:00,sdl,9.85
2022-07-26T02:20:00,sdl,10.77
2022-07-26T02:21:00,sdl,10.60
2022-07-26T02:22:00,sdl,11.04
2022-07-26T02:23:00,sdl,11.12
2022-07-26T02:24:00,sdl,11.92
2022-07-26T02:25:00,sdl,10.49
2022-07-26T02:26:00,sdl,10.36
2022-07-26T02:27:00,sdl,10.53
2022-07-26T02:28:00,sdl,10.45
2022-07-26T02:29:00,sdl,10.96
2022-07-26T02:30:00,sdl,10.49
2022-07-26T02:31:00,sdl,10.39
2022-07-26T02:32:00,sdl,12.91
2022-07-26T02:33:00,sdl,12.39
2022-07-26T02:34:00,sdl,12.33
2022-07-26T02:35:00,sdl,12.43
2022-07-26T02:36:00,sdl,12.37
2022-07-26T02:37:00,sdl,12.37
2022-07-26T02:38:00,sdl,12.79
2022-07-26T02:39:00,sdl,12.75
2022-07-26T02:40:00,sdl,13.17
2022-07-26T02:41:00,sdl,12.78
2022-07-26T02:42:00,sdl,10.30
2022-07-26T02:43:00,sdl,10.37
2022-07-26T02:44:00,sdl,10.21
2022-07-26T02:45:00,sdl,10.22
2022-07-26T02:46:00,sdl,11.35
2022-07-26T02:47:00,sdl,11.25
2022-07-26T02:48:00,sdl,11.25
2022-07-26T02:49:00,sdl,8.79
2022-07-26T02:50:00,sdl,8.81
2022-07-26T02:51:00,sdl,7.85
2022-07-26T02:52:00,sdl,7.84
2022-07-26T02:53:00,sdl,7.81
2022-07-26T02:54:00,sdl,7.86
2022-07-26T02:55:00,sdl,7.66
2022-07-26T02:56:00,sdl,7.73
2022-07-26T02:57:00,sdl,7.72
2022-07-26T02:58:00,sdl,10.39
2022-07-26T02:59:00,sdl,10.32
2022-07-26T03:00:00,sdl,10.34
2022-07-26T03:01:00,sdl,10.26
2022-07-26T03:02:00,sdl,10.80
2022-07-26T03:03:00,sdl,10.35
2022-07-26T03:04:00,sdl,10.44
2022-07-26T03:05:00,sdl,10.50
2022-07-26T03:06:00,sdl,13.11
2022-07-26T03:07:00,sdl,12.84
2022-07-26T03:08:00,sdl,12.36
2022-07-26T03:09:00,sdl,9.90
2022-07-26T03:10:00,sdl,9.92
2022-07-26T03:11:00,sdl,9.94
2022-07-26T03:12:00,sdl,9.84
2022-07-26T03:13:00,sdl,10.72
2022-07-26T03:14:00,sdl,10.70
2022-07-26T03:15:00,sdl,10.68
2022-07-26T03:16:00,sdl,10.63
2022-07-26T03:17:00,sdl,10.68
2022-07-26T03:18:00,sdl,12.50
2022-07-26T03:19:00,sdl,12.43
2022-07-26T03:20:00,sdl,13.04
2022-07-26T03:21:00,sdl,10.14
2022-07-26T03:22:00,sdl,10.13
2022-07-26T03:23:00,sdl,10.19
2022-07-26T03:24:00,sdl,10.11
2022-07-26T03:25:00,sdl,7.66
2022-07-26T03:26:00,sdl,7.66
2022-07-26T03:27:00,sdl,7.60
2022-07-26T03:28:00,sdl,7.63
2022-07-26T03:29:00,sdl,7.40
2022-07-26T03:30:00,sdl,7.43
2022-07-26T03:31:00,sdl,8.67
2022-07-26T03:32:00,sdl,7.28
2022-07-26T03:33:00,sdl,7.77
2022-07-26T03:34:00,sdl,10.36
2022-07-26T03:35:00,sdl,9.96
2022-07-26T03:36:00,sdl,9.98
2022-07-26T03:37:00,sdl,9.85
2022-07-26T03:38:00,sdl,9.96
2022-07-26T03:39:00,sdl,10.41
2022-07-26T03:40:00,sdl,14.03
2022-07-26T03:41:00,sdl,11.10
2022-07-26T03:42:00,sdl,10.95
2022-07-26T03:43:00,sdl,11.07
2022-07-26T03:44:00,sdl,11.04
2022-07-26T03:45:00,sdl,10.05
2022-07-26T03:46:00,sdl,10.14
2022-07-26T03:47:00,sdl,10.23
2022-07-26T03:48:00,sdl,10.21
2022-07-26T03:49:00,sdl,12.55
2022-07-26T03:50:00,sdl,12.67
2022-07-26T03:51:00,sdl,10.39
2022-07-26T03:52:00,sdl,10.47
2022-07-26T03:53:00,sdl,10.48
2022-07-26T03:54:00,sdl,10.50
2022-07-26T03:55:00,sdl,10.53
2022-07-26T03:56:00,sdl,10.48
2022-07-26T03:57:00,sdl,8.02
2022-07-26T03:58:00,sdl,7.94
2022-07-26T03:59:00,sdl,7.95
2022-07-26T04:00:00,sdl,7.95
2022-07-26T04:01:00,sdl,8.23
2022-07-26T04:02:00,sdl,8.18
2022-07-26T04:03:00,sdl,7.79
2022-07-26T04:04:00,sdl,8.09
2022-07-26T04:05:00,sdl,7.68
2022-07-26T04:06:00,sdl,10.06
2022-07-26T04:07:00,sdl,10.17
2022-07-26T04:08:00,sdl,10.93
2022-07-26T04:09:00,sdl,10.95
2022-07-26T04:10:00,sdl,11.45
2022-07-26T04:11:00,sdl,11.13
2022-07-26T04:12:00,sdl,11.10
2022-07-26T04:13:00,sdl,7.76
2022-07-26T04:14:00,sdl,7.96
2022-07-26T04:15:00,sdl,7.98
2022-07-26T04:16:00,sdl,7.95
2022-07-26T04:17:00,sdl,7.78
2022-07-26T04:18:00,sdl,7.94
2022-07-26T04:19:00,sdl,7.95
2022-07-26T04:20:00,sdl,7.89
2022-07-26T04:21:00,sdl,9.44
2022-07-26T04:22:00,sdl,9.88
2022-07-26T04:23:00,sdl,9.80
2022-07-26T04:24:00,sdl,9.85
2022-07-26T04:25:00,sdl,12.46
2022-07-26T04:26:00,sdl,12.09
2022-07-26T04:27:00,sdl,12.24
2022-07-26T04:28:00,sdl,12.18
2022-07-26T04:29:00,sdl,9.78
2022-07-26T04:30:00,sdl,9.71
2022-07-26T04:31:00,sdl,9.73
2022-07-26T04:32:00,sdl,10.16
2022-07-26T04:33:00,sdl,10.24
2022-07-26T04:34:00,sdl,11.76
2022-07-26T04:35:00,sdl,10.57
2022-07-26T04:36:00,sdl,10.65
2022-07-26T04:37:00,sdl,10.61
2022-07-26T04:38:00,sdl,12.23
2022-07-26T04:39:00,sdl,12.15
2022-07-26T04:40:00,sdl,12.07
2022-07-26T04:41:00,sdl,10.06
2022-07-26T04:42:00,sdl,10.32
2022-07-26T04:43:00,sdl,9.74
2022-07-26T04:44:00,sdl,9.88
2022-07-26T04:45:00,sdl,7.45
2022-07-26T04:46:00,sdl,7.39
2022-07-26T04:47:00,sdl,7.47
2022-07-26T04:48:00,sdl,7.46
2022-07-26T04:49:00,sdl,7.47
2022-07-26T04:50:00,sdl,7.66
2022-07-26T04:51:00,sdl,7.58
2022-07-26T04:52:00,sdl,7.64
2022-07-26T04:53:00,sdl,7.56
2022-07-26T04:54:00,sdl,10.10
2022-07-26T04:55:00,sdl,10.41
2022-07-26T04:56:00,sdl,10.65
2022-07-26T04:57:00,sdl,10.30
2022-07-26T04:58:00,sdl,13.15
2022-07-26T04:59:00,sdl,13.76
2022-07-26T05:00:00,sdl,13.77
2022-07-26T05:01:00,sdl,11.01
2022-07-26T05:02:00,sdl,11.08
2022-07-26T05:03:00,sdl,11.09
2022-07-26T05:04:00,sdl,10.12
2022-07-26T05:05:00,sdl,10.17
2022-07-26T05:06:00,sdl,10.75
2022-07-26T05:07:00,sdl,10.01
2022-07-26T05:08:00,sdl,10.06
2022-07-26T05:09:00,sdl,7.88
2022-07-26T05:10:00,sdl,10.32
2022-07-26T05:11:00,sdl,10.32
2022-07-26T05:12:00,sdl,10.53
2022-07-26T05:13:00,sdl,10.20
2022-07-26T05:14:00,sdl,10.22
2022-07-26T05:15:00,sdl,10.35
2022-07-26T05:16:00,sdl,10.25
2022-07-26T05:17:00,sdl,7.84
2022-07-26T05:18:00,sdl,7.89
2022-07-26T05:19:00,sdl,7.91
2022-07-26T05:20:00,sdl,7.98
2022-07-26T05:21:00,sdl,7.91
2022-07-26T05:22:00,sdl,7.93
2022-07-26T05:23:00,sdl,7.90
2022-07-26T05:24:00,sdl,7.94
2022-07-26T05:25:00,sdl,8.88
2022-07-26T05:26:00,sdl,11.83
2022-07-26T05:27:00,sdl,11.41
2022-07-26T05:28:00,sdl,11.17
2022-07-26T05:29:00,sdl,10.29
2022-07-26T05:30:00,sdl,10.34
2022-07-26T05:31:00,sdl,10.30
2022-07-26T05:32:00,sdl,10.18
2022-07-26T05:33:00,sdl,7.67
2022-07-26T05:34:00,sdl,7.65
2022-07-26T05:35:00,sdl,7.23
2022-07-26T05:36:00,sdl,7.29
2022-07-26T05:37:00,sdl,7.54
2022-07-26T05:38:00,sdl,7.30
2022-07-26T05:39:00,sdl,7.98
2022-07-26T05:40:00,sdl,7.36
2022-07-26T05:41:00,sdl,7.34
2022-07-26T05:42:00,sdl,9.95
2022-07-26T05:43:00,sdl,9.97
2022-07-26T05:44:00,sdl,10.19
2022-07-26T05:45:00,sdl,9.65
2022-07-26T05:46:00,sdl,12.52
2022-07-26T05:47:00,sdl,12.00
2022-07-26T05:48:00,sdl,12.63
2022-07-26T05:49:00,sdl,9.56
2022-07-26T05:50:00,sdl,9.57
2022-07-26T05:51:00,sdl,10.34
2022-07-26T05:52:00,sdl,10.73
2022-07-26T05:53:00,sdl,10.79
2022-07-26T05:54:00,sdl,10.45
2022-07-26T05:55:00,sdl,10.41
2022-07-26T05:56:00,sdl,9.61
2022-07-26T05:57:00,sdl,9.59
2022-07-26T05:58:00,sdl,12.12
2022-07-26T05:59:00,sdl,12.43
2022-07-26T06:00:00,sdl,12.07
2022-07-26T06:01:00,sdl,9.82
2022-07-26T06:02:00,sdl,9.76
2022-07-26T06:03:00,sdl,9.88
2022-07-26T06:04:00,sdl,9.81
2022-07-26T06:05:00,sdl,7.40
2022-07-26T06:06:00,sdl,7.30
2022-07-26T06:07:00,sdl,7.28
2022-07-26T06:08:00,sdl,7.26
2022-07-26T06:09:00,sdl,7.63
2022-07-26T06:10:00,sdl,7.56
2022-07-26T06:11:00,sdl,7.64
2022-07-26T06:12:00,sdl,7.64
2022-07-26T06:13:00,sdl,9.97
2022-07-26T06:14:00,sdl,10.27
2022-07-26T06:15:00,sdl,10.24
2022-07-26T06:16:00,sdl,10.16
2022-07-26T06:17:00,sdl,7.63
2022-07-26T06:18:00,sdl,10.72
2022-07-26T06:19:00,sdl,10.62
2022-07-26T06:20:00,sdl,10.69
2022-07-26T06:21:00,sdl,10.64
2022-07-26T06:22:00,sdl,11.50
2022-07-26T06:23:00,sdl,9.76
2022-07-26T06:24:00,sdl,10.19
2022-07-26T06:25:00,sdl,12.90
2022-07-26T06:26:00,sdl,12.10
2022-07-26T06:27:00,sdl,12.19
2022-07-26T06:28:00,sdl,12.19
2022-07-26T06:29:00,sdl,12.55
2022-07-26T06:30:00,sdl,10.21
2022-07-26T06:31:00,sdl,10.29
2022-07-26T06:32:00,sdl,10.26
2022-07-26T06:33:00,sdl,7.73
2022-07-26T06:34:00,sdl,7.85
2022-07-26T06:35:00,sdl,7.81
2022-07-26T06:36:00,sdl,7.75
2022-07-26T06:37:00,sdl,7.81
2022-07-26T06:38:00,sdl,7.61
2022-07-26T06:39:00,sdl,7.69
2022-07-26T06:40:00,sdl,7.73
2022-07-26T06:41:00,sdl,7.61
2022-07-26T06:42:00,sdl,10.39
2022-07-26T06:43:00,sdl,10.28
2022-07-26T06:44:00,sdl,10.36
2022-07-26T06:45:00,sdl,11.22
2022-07-26T06:46:00,sdl,11.13
2022-07-26T06:47:00,sdl,11.33
2022-07-26T06:48:00,sdl,11.16
2022-07-26T06:49:00,sdl,8.63
2022-07-26T06:50:00,sdl,7.34
2022-07-26T06:51:00,sdl,7.56
2022-07-26T06:52:00,sdl,7.79
2022-07-26T06:53:00,sdl,7.78
2022-07-26T06:54:00,sdl,7.44
2022-07-26T06:55:00,sdl,7.31
2022-07-26T06:56:00,sdl,7.76
2022-07-26T06:57:00,sdl,7.27
2022-07-26T06:58:00,sdl,9.88
2022-07-26T06:59:00,sdl,9.81
2022-07-26T07:00:00,sdl,9.88
2022-07-26T07:01:00,sdl,9.74
2022-07-26T07:02:00,sdl,13.16
2022-07-26T07:03:00,sdl,13.33
2022-07-26T07:04:00,sdl,13.60
2022-07-26T07:05:00,sdl,13.13
2022-07-26T07:06:00,sdl,13.34
2022-07-26T07:07:00,sdl,13.30
2022-07-26T07:08:00,sdl,13.47
2022-07-26T07:09:00,sdl,13.59
2022-07-26T07:10:00,sdl,13.54
2022-07-26T07:11:00,sdl,15.97
2022-07-26T07:12:00,sdl,15.83
2022-07-26T07:13:00,sdl,16.32
2022-07-26T07:14:00,sdl,19.28
2022-07-26T07:15:00,sdl,19.29
2022-07-26T07:16:00,sdl,20.57
2022-07-26T07:17:00,sdl,19.32
2022-07-26T07:18:00,sdl,21.64
2022-07-26T07:19:00,sdl,21.41
2022-07-26T07:20:00,sdl,15.84
2022-07-26T07:21:00,sdl,10.90
2022-07-26T07:22:00,sdl,12.10
2022-07-26T07:23:00,sdl,12.19
2022-07-26T07:24:00,sdl,12.52
2022-07-26T07:25:00,sdl,12.47
2022-07-26T07:26:00,sdl,12.48
2022-07-26T07:27:00,sdl,12.52
2022-07-26T07:28:00,sdl,12.68
2022-07-26T07:29:00,sdl,12.47
2022-07-26T07:30:00,sdl,15.26
2022-07-26T07:31:00,sdl,15.20
2022-07-26T07:32:00,sdl,15.16
2022-07-26T07:33:00,sdl,15.16
2022-07-26T07:34:00,sdl,14.71
2022-07-26T07:35:00,sdl,14.72
2022-07-26T07:36:00,sdl,14.69
2022-07-26T07:37:00,sdl,17.73
2022-07-26T07:38:00,sdl,15.16
2022-07-26T07:39:00,sdl,14.45
2022-07-26T07:40:00,sdl,14.45
2022-07-26T07:41:00,sdl,14.41
2022-07-26T07:42:00,sdl,13.44
2022-07-26T07:43:00,sdl,8.78
2022-07-26T07:44:00,sdl,8.70
2022-07-26T07:45:00,sdl,8.44
2022-07-26T07:46:00,sdl,8.37
2022-07-26T07:47:00,sdl,8.76
2022-07-26T07:48:00,sdl,8.73
2022-07-26T07:49:00,sdl,9.39
2022-07-26T07:50:00,sdl,6.76
2022-07-26T07:51:00,sdl,8.28
2022-07-26T07:52:00,sdl,8.58
2022-07-26T07:53:00,sdl,8.54
2022-07-26T07:54:00,sdl,8.15
2022-07-26T07:55:00,sdl,8.28
2022-07-26T07:56:00,sdl,8.37
2022-07-26T07:57:00,sdl,8.29
2022-07-26T07:58:00,sdl,8.34
2022-07-26T07:59:00,sdl,9.23
2022-07-26T08:00:00,sdl,9.29
2022-07-26T08:01:00,sdl,9.20
2022-07-26T08:02:00,sdl,9.26
2022-07-26T08:03:00,sdl,9.13
2022-07-26T08:04:00,sdl,8.29
2022-07-26T08:05:00,sdl,9.02
2022-07-26T08:06:00,sdl,8.46
2022-07-26T08:07:00,sdl,8.38
2022-07-26T08:08:00,sdl,8.50
2022-07-26T08:09:00,sdl,8.27
2022-07-26T08:10:00,sdl,13.13
2022-07-26T08:11:00,sdl,13.34
2022-07-26T08:12:00,sdl,13.44
2022-07-26T08:13:00,sdl,14.12
2022-07-26T08:14:00,sdl,13.63
2022-07-26T08:15:00,sdl,16.49
2022-07-26T08:16:00,sdl,16.59
2022-07-26T08:17:00,sdl,16.88
2022-07-26T08:18:00,sdl,17.55
2022-07-26T08:19:00,sdl,17.98
2022-07-26T08:20:00,sdl,17.51
2022-07-26T08:21:00,sdl,18.56
2022-07-26T08:22:00,sdl,18.46
2022-07-26T08:23:00,sdl,18.53
2022-07-26T08:24:00,sdl,18.49
2022-07-26T08:25:00,sdl,18.89
2022-07-26T08:26:00,sdl,17.96
2022-07-26T08:27:00,sdl,17.99
2022-07-26T08:28:00,sdl,17.45
2022-07-26T08:29:00,sdl,17.41
2022-07-26T08:30:00,sdl,20.39
2022-07-26T08:31:00,sdl,22.62
2022-07-26T08:32:00,sdl,22.67
2022-07-26T08:33:00,sdl,22.79
2022-07-26T08:34:00,sdl,22.73
2022-07-26T08:35:00,sdl,22.91
2022-07-26T08:36:00,sdl,22.78
2022-07-26T08:37:00,sdl,24.32
2022-07-26T08:38:00,sdl,24.45
2022-07-26T08:39:00,sdl,20.62
2022-07-26T08:40:00,sdl,20.08
2022-07-26T08:41:00,sdl,21.14
2022-07-26T08:42:00,sdl,21.04
2022-07-26T08:43:00,sdl,20.89
2022-07-26T08:44:00,sdl,20.89
2022-07-26T08:45:00,sdl,20.79
2022-07-26T08:46:00,sdl,16.99
2022-07-26T08:47:00,sdl,17.02
2022-07-26T08:48:00,sdl,17.01
2022-07-26T08:49:00,sdl,14.59
2022-07-26T08:50:00,sdl,14.56
2022-07-26T08:51:00,sdl,14.95
2022-07-26T08:52:00,sdl,14.59
2022-07-26T08:53:00,sdl,14.58
2022-07-26T08:54:00,sdl,14.69
2022-07-26T08:55:00,sdl,17.46
2022-07-26T08:56:00,sdl,17.49
2022-07-26T08:57:00,sdl,18.25
2022-07-26T08:58:00,sdl,18.10
2022-07-26T08:59:00,sdl,18.84
2022-07-26T09:00:00,sdl,19.10
2022-07-26T09:01:00,sdl,18.40
2022-07-26T09:02:00,sdl,18.79
2022-07-26T09:03:00,sdl,18.43
2022-07-26T09:04:00,sdl,20.34
2022-07-26T09:05:00,sdl,20.63
2022-07-26T09:06:00,sdl,20.15
2022-07-26T09:07:00,sdl,19.83
2022-07-26T09:08:00,sdl,20.51
2022-07-26T09:09:00,sdl,19.93
2022-07-26T09:10:00,sdl,17.04
2022-07-26T09:11:00,sdl,18.00
2022-07-26T09:12:00,sdl,17.50
2022-07-26T09:13:00,sdl,17.40
2022-07-26T09:14:00,sdl,17.30
2022-07-26T09:15:00,sdl,17.21
2022-07-26T09:16:00,sdl,17.19
2022-07-26T09:17:00,sdl,18.23
2022-07-26T09:18:00,sdl,19.34
2022-07-26T09:19:00,sdl,21.57
2022-07-26T09:20:00,sdl,21.17
2022-07-26T09:21:00,sdl,21.28
2022-07-26T09:22:00,sdl,19.49
2022-07-26T09:23:00,sdl,18.63
2022-07-26T09:24:00,sdl,18.61
2022-07-26T09:25:00,sdl,20.69
2022-07-26T09:26:00,sdl,18.69
2022-07-26T09:27:00,sdl,18.82
2022-07-26T09:28:00,sdl,18.35
2022-07-26T09:29:00,sdl,18.36
2022-07-26T09:30:00,sdl,18.41
2022-07-26T09:31:00,sdl,17.88
2022-07-26T09:32:00,sdl,18.05
2022-07-26T09:33:00,sdl,21.08
2022-07-26T09:34:00,sdl,20.94
2022-07-26T09:35:00,sdl,18.28
2022-07-26T09:36:00,sdl,18.42
2022-07-26T09:37:00,sdl,18.61
2022-07-26T09:38:00,sdl,18.26
2022-07-26T09:39:00,sdl,18.26
2022-07-26T09:40:00,sdl,19.46
2022-07-26T09:41:00,sdl,18.30
2022-07-26T09:42:00,sdl,18.32
2022-07-26T09:43:00,sdl,18.28
2022-07-26T09:44:00,sdl,18.33
2022-07-26T09:45:00,sdl,18.29
2022-07-26T09:46:00,sdl,18.48
2022-07-26T09:47:00,sdl,18.03
2022-07-26T09:48:00,sdl,17.26
2022-07-26T09:49:00,sdl,17.04
2022-07-26T09:50:00,sdl,14.14
2022-07-26T09:51:00,sdl,13.96
2022-07-26T09:52:00,sdl,16.04
2022-07-26T09:53:00,sdl,15.95
2022-07-26T09:54:00,sdl,17.01
2022-07-26T09:55:00,sdl,11.04
2022-07-26T09:56:00,sdl,11.02
2022-07-26T09:57:00,sdl,11.47
2022-07-26T09:58:00,sdl,11.03
2022-07-26T09:59:00,sdl,11.62
2022-07-26T10:00:00,sdl,11.49
2022-07-26T10:01:00,sdl,11.67
2022-07-26T10:02:00,sdl,11.73
2022-07-26T10:03:00,sdl,11.09
2022-07-26T10:04:00,sdl,10.76
2022-07-26T10:05:00,sdl,11.51
2022-07-26T10:06:00,sdl,10.17
2022-07-26T10:07:00,sdl,10.54
2022-07-26T10:08:00,sdl,10.48
2022-07-26T10:09:00,sdl,10.17
2022-07-26T10:10:00,sdl,10.29
2022-07-26T10:11:00,sdl,10.26
2022-07-26T10:12:00,sdl,8.09
2022-07-26T10:13:00,sdl,8.22
2022-07-26T10:14:00,sdl,9.75
2022-07-26T10:15:00,sdl,8.69
2022-07-26T10:16:00,sdl,9.59
2022-07-26T10:17:00,sdl,12.29
2022-07-26T10:18:00,sdl,12.75
2022-07-26T10:19:00,sdl,12.56
2022-07-26T10:20:00,sdl,12.78
2022-07-26T10:21:00,sdl,12.81
2022-07-26T10:22:00,sdl,17.89
2022-07-26T10:23:00,sdl,18.88
2022-07-26T10:24:00,sdl,22.00
2022-07-26T10:25:00,sdl,21.81
2022-07-26T10:26:00,sdl,17.26
2022-07-26T10:27:00,sdl,20.05
2022-07-26T10:28:00,sdl,20.20
2022-07-26T10:29:00,sdl,20.15
2022-07-26T10:30:00,sdl,20.03
2022-07-26T10:31:00,sdl,20.98
2022-07-26T10:32:00,sdl,20.98
2022-07-26T10:33:00,sdl,20.59
2022-07-26T10:34:00,sdl,20.53
2022-07-26T10:35:00,sdl,21.71
2022-07-26T10:36:00,sdl,21.52
2022-07-26T10:37:00,sdl,21.57
2022-07-26T10:38:00,sdl,21.54
2022-07-26T10:39:00,sdl,21.42
2022-07-26T10:40:00,sdl,21.75
2022-07-26T10:41:00,sdl,21.60
2022-07-26T10:42:00,sdl,21.51
2022-07-26T10:43:00,sdl,19.81
2022-07-26T10:44:00,sdl,19.45
2022-07-26T10:45:00,sdl,19.53
2022-07-26T10:46:00,sdl,19.45
2022-07-26T10:47:00,sdl,18.47
2022-07-26T10:48:00,sdl,21.36
2022-07-26T10:49:00,sdl,21.48
2022-07-26T10:50:00,sdl,21.56
2022-07-26T10:51:00,sdl,21.55
2022-07-26T10:52:00,sdl,22.45
2022-07-26T10:53:00,sdl,21.48
2022-07-26T10:54:00,sdl,21.29
2022-07-26T10:55:00,sdl,24.51
2022-07-26T10:56:00,sdl,24.47
2022-07-26T10:57:00,sdl,24.38
2022-07-26T10:58:00,sdl,24.92
2022-07-26T10:59:00,sdl,19.47
2022-07-26T11:00:00,sdl,19.59
2022-07-26T11:01:00,sdl,19.81
2022-07-26T11:02:00,sdl,19.91
2022-07-26T11:03:00,sdl,19.48
2022-07-26T11:04:00,sdl,19.46
2022-07-26T11:05:00,sdl,20.84
2022-07-26T11:06:00,sdl,21.37
2022-07-26T11:07:00,sdl,21.03
2022-07-26T11:08:00,sdl,19.10
2022-07-26T11:09:00,sdl,19.03
2022-07-26T11:10:00,sdl,21.09
2022-07-26T11:11:00,sdl,21.44
2022-07-26T11:12:00,sdl,21.75
2022-07-26T11:13:00,sdl,20.73
2022-07-26T11:14:00,sdl,17.53
2022-07-26T11:15:00,sdl,17.54
2022-07-26T11:16:00,sdl,18.42
2022-07-26T11:17:00,sdl,18.46
2022-07-26T11:18:00,sdl,18.48
2022-07-26T11:19:00,sdl,18.51
2022-07-26T11:20:00,sdl,18.53
2022-07-26T11:21:00,sdl,18.06
2022-07-26T11:22:00,sdl,18.72
2022-07-26T11:23:00,sdl,21.26
2022-07-26T11:24:00,sdl,21.76
2022-07-26T11:25:00,sdl,23.92
2022-07-26T11:26:00,sdl,23.35
2022-07-26T11:27:00,sdl,23.39
2022-07-26T11:28:00,sdl,23.53
2022-07-26T11:29:00,sdl,23.48
2022-07-26T11:30:00,sdl,23.57
2022-07-26T11:31:00,sdl,18.41
2022-07-26T11:32:00,sdl,20.99
2022-07-26T11:33:00,sdl,20.95
2022-07-26T11:34:00,sdl,20.87
2022-07-26T11:35:00,sdl,15.87
2022-07-26T11:36:00,sdl,19.22
2022-07-26T11:37:00,sdl,19.60
2022-07-26T11:38:00,sdl,17.91
2022-07-26T11:39:00,sdl,16.30
2022-07-26T11:40:00,sdl,15.85
2022-07-26T11:41:00,sdl,15.94
2022-07-26T11:42:00,sdl,15.98
2022-07-26T11:43:00,sdl,18.54
2022-07-26T11:44:00,sdl,18.69
2022-07-26T11:45:00,sdl,18.82
2022-07-26T11:46:00,sdl,21.12
2022-07-26T11:47:00,sdl,20.18
2022-07-26T11:48:00,sdl,20.15
2022-07-26T11:49:00,sdl,19.93
2022-07-26T11:50:00,sdl,19.97
2022-07-26T11:51:00,sdl,19.79
2022-07-26T11:52:00,sdl,16.64
2022-07-26T11:53:00,sdl,16.67
2022-07-26T11:54:00,sdl,16.55
2022-07-26T11:55:00,sdl,18.38
2022-07-26T11:56:00,sdl,17.88
2022-07-26T11:57:00,sdl,18.20
2022-07-26T11:58:00,sdl,21.37
2022-07-26T11:59:00,sdl,21.56
2022-07-26T12:00:00,sdl,15.99
2022-07-26T12:01:00,sdl,16.30
2022-07-26T12:02:00,sdl,16.05
2022-07-26T12:03:00,sdl,18.64
2022-07-26T12:04:00,sdl,18.72
2022-07-26T12:05:00,sdl,12.79
2022-07-26T12:06:00,sdl,12.67
2022-07-26T12:07:00,sdl,11.72
2022-07-26T12:08:00,sdl,11.66
2022-07-26T12:09:00,sdl,11.64
2022-07-26T12:10:00,sdl,14.40
2022-07-26T12:11:00,sdl,14.24
2022-07-26T12:12:00,sdl,14.62
2022-07-26T12:13:00,sdl,14.38
2022-07-26T12:14:00,sdl,8.66
2022-07-26T12:15:00,sdl,9.57
2022-07-26T12:16:00,sdl,10.08
2022-07-26T12:17:00,sdl,10.52
2022-07-26T12:18:00,sdl,10.53
2022-07-26T12:19:00,sdl,9.91
2022-07-26T12:20:00,sdl,14.92
2022-07-26T12:21:00,sdl,15.71
2022-07-26T12:22:00,sdl,15.74
2022-07-26T12:23:00,sdl,14.73
2022-07-26T12:24:00,sdl,15.05
2022-07-26T12:25:00,sdl,17.37
2022-07-26T12:26:00,sdl,17.60
2022-07-26T12:27:00,sdl,20.33
2022-07-26T12:28:00,sdl,19.77
2022-07-26T12:29:00,sdl,19.90
2022-07-26T12:30:00,sdl,19.84
2022-07-26T12:31:00,sdl,19.76
2022-07-26T12:32:00,sdl,19.82
2022-07-26T12:33:00,sdl,20.91
2022-07-26T12:34:00,sdl,21.27
2022-07-26T12:35:00,sdl,21.14
2022-07-26T12:36:00,sdl,20.83
2022-07-26T12:37:00,sdl,20.69
2022-07-26T12:38:00,sdl,20.70
2022-07-26T12:39:00,sdl,20.83
2022-07-26T12:40:00,sdl,22.63
2022-07-26T12:41:00,sdl,22.48
2022-07-26T12:42:00,sdl,22.57
2022-07-26T12:43:00,sdl,22.78
2022-07-26T12:44:00,sdl,22.86
2022-07-26T12:45:00,sdl,22.85
2022-07-26T12:46:00,sdl,22.84
2022-07-26T12:47:00,sdl,24.82
2022-07-26T12:48:00,sdl,24.57
2022-07-26T12:49:00,sdl,23.29
2022-07-26T12:50:00,sdl,23.81
2022-07-26T12:51:00,sdl,24.11
2022-07-26T12:52:00,sdl,18.91
2022-07-26T12:53:00,sdl,18.93
2022-07-26T12:54:00,sdl,19.17
2022-07-26T12:55:00,sdl,19.84
2022-07-26T12:56:00,sdl,19.68
2022-07-26T12:57:00,sdl,20.02
2022-07-26T12:58:00,sdl,19.54
2022-07-26T12:59:00,sdl,18.52
2022-07-26T13:00:00,sdl,18.44
2022-07-26T13:01:00,sdl,18.56
2022-07-26T13:02:00,sdl,20.66
2022-07-26T13:03:00,sdl,21.29
2022-07-26T13:04:00,sdl,18.48
2022-07-26T13:05:00,sdl,17.61
2022-07-26T13:06:00,sdl,17.52
2022-07-26T13:07:00,sdl,17.85
2022-07-26T13:08:00,sdl,17.86
2022-07-26T13:09:00,sdl,17.52
2022-07-26T13:10:00,sdl,18.67
2022-07-26T13:11:00,sdl,18.49
2022-07-26T13:12:00,sdl,18.54
2022-07-26T13:13:00,sdl,21.69
2022-07-26T13:14:00,sdl,21.83
2022-07-26T13:15:00,sdl,21.65
2022-07-26T13:16:00,sdl,21.65
2022-07-26T13:17:00,sdl,20.78
2022-07-26T13:18:00,sdl,18.67
2022-07-26T13:19:00,sdl,18.65
2022-07-26T13:20:00,sdl,19.14
2022-07-26T13:21:00,sdl,21.14
2022-07-26T13:22:00,sdl,20.35
2022-07-26T13:23:00,sdl,19.91
2022-07-26T13:24:00,sdl,20.04
2022-07-26T13:25:00,sdl,20.01
2022-07-26T13:26:00,sdl,20.36
2022-07-26T13:27:00,sdl,20.58
2022-07-26T13:28:00,sdl,21.76